Weather History for St. James, MN

Change the Weather History Date:

Saturday, October 13, 2012

  Actual Average Record
Temperature  
Mean Temperature 55 °F -  
Max Temperature 62 °F 62 °F 87 °F (1958)
Min Temperature 48 °F 38 °F 17 °F (1993)
Degree Days  
Heating Degree Days 10    
Growing Degree Days 5 (Base 50)    
Moisture  
Dew Point 48 °F    
Average Humidity 81    
Maximum Humidity 94    
Minimum Humidity 62    
Precipitation  
Precipitation 0.04 in - - ()
Sea Level Pressure  
Sea Level Pressure 29.77 in    
Wind  
Wind Speed 10 mph (SSE)    
Max Wind Speed 24 mph    
Max Gust Speed 29 mph    
Visibility 9 miles    
Events Rain , Thunderstorm    
Averages and records for this station are not official NWS values.
T = Trace of Precipitation, MM = Missing Value Source: NWS Daily Summary

Daily Weather History Graph

Daily Weather History Graph

Search for Another Location

Airport:

Trip Planner

Search our weather history database for the weather conditions in past years. The results will help you decide how hot, cold, wet, or windy it might be!

Date:

Astronomy

Oct. 13, 2012 Rise Set
Actual Time 7:30 AM CDT 6:36 PM CDT
Civil Twilight 7:01 AM CDT 7:05 PM CDT
Nautical Twilight 6:28 AM CDT 7:39 PM CDT
Astronomical Twilight 5:55 AM CDT 8:12 PM CDT
Moon 5:18 AM CDT (10/13) 5:23 PM CDT (10/13)
Length of Visible Light 12h 04m
Length of Day
11h 05m
Waning Crescent, 5% of the Moon is Illuminated
Oct 13
Waning Crescent
Oct 15
New
Oct 21
First Quarter
Oct 29
Full
Nov 6
Last Quarter

Hourly Weather History & Observations

Time (CDT) Temp. Dew Point Humidity Pressure Visibility Wind Dir Wind Speed Gust Speed Precip Events Conditions
12:15 AM 48.2 °F 35.6 °F 62% 29.99 in 10.0 mi SSE 21.9 mph 28.8 mph N/A   Overcast
12:55 AM 48.2 °F 39.2 °F 71% 29.96 in 10.0 mi SSE 24.2 mph 28.8 mph N/A   Overcast
1:15 AM 48.2 °F 41.0 °F 76% 29.97 in 10.0 mi South 17.3 mph 26.5 mph N/A   Overcast
1:35 AM 48.2 °F 41.0 °F 76% 29.96 in 10.0 mi South 15.0 mph 24.2 mph N/A   Overcast
1:55 AM 50.0 °F 39.2 °F 66% 29.96 in 10.0 mi South 12.7 mph 23.0 mph N/A   Overcast
2:15 AM 50.0 °F 39.2 °F 66% 29.94 in 10.0 mi SSE 17.3 mph - N/A   Overcast
2:35 AM 50.0 °F 41.0 °F 71% 29.92 in 10.0 mi South 15.0 mph 19.6 mph N/A   Overcast
2:55 AM 50.0 °F 39.2 °F 66% 29.91 in 10.0 mi South 12.7 mph 17.3 mph N/A   Overcast
3:15 AM 50.0 °F 39.2 °F 66% 29.89 in 10.0 mi SSE 12.7 mph 17.3 mph N/A   Overcast
3:35 AM 50.0 °F 39.2 °F 66% 29.89 in 10.0 mi South 16.1 mph 19.6 mph N/A   Overcast
3:55 AM 48.2 °F 41.0 °F 76% 29.87 in 10.0 mi South 13.8 mph - N/A   Overcast
4:15 AM 48.2 °F 42.8 °F 82% 29.87 in 10.0 mi SSE 17.3 mph - N/A   Overcast
4:36 AM 48.2 °F 42.8 °F 82% 29.87 in 10.0 mi SSE 15.0 mph 19.6 mph N/A   Overcast
4:55 AM 48.2 °F 42.8 °F 82% 29.85 in 10.0 mi SSE 13.8 mph - N/A   Overcast
5:15 AM 48.2 °F 42.8 °F 82% 29.84 in 10.0 mi SSE 10.4 mph 16.1 mph N/A   Overcast
5:34 AM 48.2 °F 42.8 °F 82% 29.83 in 10.0 mi SSE 11.5 mph - N/A   Overcast
5:55 AM 48.2 °F 44.6 °F 87% 29.83 in 10.0 mi SSE 15.0 mph - N/A Thunderstorm Overcast
6:15 AM 48.2 °F 44.6 °F 87% 29.83 in 10.0 mi SSE 17.3 mph - N/A   Overcast
6:35 AM 48.2 °F 44.6 °F 87% 29.82 in 10.0 mi SSE 12.7 mph - N/A   Overcast
6:55 AM 48.2 °F 44.6 °F 87% 29.82 in 10.0 mi SSE 9.2 mph - N/A   Overcast
7:15 AM 48.2 °F 44.6 °F 87% 29.81 in 10.0 mi Calm Calm - N/A   Overcast
7:35 AM 48.2 °F 44.6 °F 87% 29.79 in 10.0 mi Calm Calm - N/A   Overcast
7:55 AM 50.0 °F 44.6 °F 82% 29.78 in 10.0 mi Calm Calm - N/A   Overcast
8:15 AM 50.0 °F 44.6 °F 82% 29.78 in 5.0 mi Calm Calm - 0.03 in Rain Heavy Rain
8:55 AM 50.0 °F 46.4 °F 87% 29.76 in 7.0 mi Calm Calm - 0.03 in   Overcast
9:35 AM 50.0 °F 46.4 °F 87% 29.77 in 7.0 mi Calm Calm - 0.01 in   Mostly Cloudy
9:55 AM 51.8 °F 46.4 °F 82% 29.76 in 7.0 mi Calm Calm - 0.01 in   Overcast
10:35 AM 53.6 °F 48.2 °F 82% 29.75 in 10.0 mi Calm Calm - N/A   Overcast
10:55 AM 53.6 °F 50.0 °F 88% 29.73 in 10.0 mi SSE 10.4 mph - N/A   Overcast
11:15 AM 55.4 °F 51.8 °F 88% 29.73 in 10.0 mi Calm Calm - N/A   Overcast
11:35 AM 55.4 °F 51.8 °F 88% 29.72 in 10.0 mi Calm Calm - N/A   Overcast
11:55 AM 57.2 °F 53.6 °F 88% 29.72 in 10.0 mi Calm Calm - N/A   Overcast
12:35 PM 57.2 °F 53.6 °F 88% 29.72 in 10.0 mi Calm Calm - N/A   Overcast
1:15 PM 59.0 °F 53.6 °F 82% 29.69 in 10.0 mi Calm Calm - N/A   Overcast
1:35 PM 60.8 °F 53.6 °F 77% 29.68 in 10.0 mi Calm Calm - N/A   Overcast
1:55 PM 60.8 °F 53.6 °F 77% 29.68 in 10.0 mi Calm Calm - N/A   Overcast
2:15 PM 60.8 °F 53.6 °F 77% 29.67 in 10.0 mi Calm Calm - N/A   Overcast
2:35 PM 60.8 °F 53.6 °F 77% 29.67 in 10.0 mi Calm Calm - N/A   Overcast
2:55 PM 60.8 °F 53.6 °F 77% 29.67 in 10.0 mi Calm Calm - N/A   Mostly Cloudy
3:15 PM 60.8 °F 55.4 °F 82% 29.67 in 10.0 mi Calm Calm - N/A   Mostly Cloudy
3:35 PM 60.8 °F 55.4 °F 82% 29.66 in 10.0 mi Calm Calm - N/A   Mostly Cloudy
3:55 PM 60.8 °F 55.4 °F 82% 29.67 in 10.0 mi Calm Calm - N/A   Mostly Cloudy
4:15 PM 62.6 °F 55.4 °F 77% 29.67 in 10.0 mi Calm Calm - N/A   Overcast
4:35 PM 62.6 °F 55.4 °F 77% 29.67 in 10.0 mi Calm Calm - N/A   Overcast
4:55 PM 62.6 °F 53.6 °F 72% 29.67 in 10.0 mi West 3.5 mph - N/A   Mostly Cloudy
5:15 PM 62.6 °F 53.6 °F 72% 29.67 in 10.0 mi West 11.5 mph - N/A   Mostly Cloudy
5:55 PM 60.8 °F 51.8 °F 72% 29.67 in 10.0 mi WNW 3.5 mph - N/A   Clear
6:15 PM 60.8 °F 51.8 °F 72% 29.68 in 10.0 mi Calm Calm - N/A   Clear
6:35 PM 57.2 °F 51.8 °F 82% 29.69 in 10.0 mi Calm Calm - N/A   Clear
6:55 PM 55.4 °F 50.0 °F 82% 29.69 in 10.0 mi Calm Calm - N/A   Clear
7:35 PM 53.6 °F 51.8 °F 94% 29.71 in 7.0 mi Calm Calm - N/A   Clear
7:55 PM 50.0 °F 46.4 °F 87% 29.72 in 5.0 mi Calm Calm - N/A   Clear
8:35 PM 53.6 °F 50.0 °F 88% 29.73 in 4.0 mi North 10.4 mph - N/A   Clear
9:14 PM 51.8 °F 48.2 °F 88% 29.73 in 3.0 mi Calm Calm - N/A   Scattered Clouds
9:35 PM 51.8 °F 50.0 °F 94% 29.72 in 0.8 mi North 5.8 mph 10.4 mph N/A   Overcast
9:55 PM 51.8 °F 48.2 °F 88% 29.74 in 0.8 mi Calm Calm - N/A   Overcast
10:15 PM 51.8 °F 48.2 °F 88% 29.74 in 1.8 mi NNE 8.1 mph - N/A   Overcast
11:15 PM 51.8 °F 48.2 °F 88% 29.75 in 5.0 mi Calm Calm - N/A   Overcast
11:35 PM 51.8 °F 48.2 °F 88% 29.74 in 5.0 mi Calm Calm - N/A   Overcast